Find Starlink 36180

NORAD ID: 67114 Int'l Des: 2025-299 Owner: SPXS Country: US Constellation: starlink operational
LEOCIRCULAR

Aktuelle Ansicht

3D-Globus wird geladen...

Über Starlink 36180

Beschreibung wird geladen...

Nächste Überflüge

Passes for default location (London). Set your location on the main map for personalized predictions.

Höhenverlauf

Loading altitude history...

Zweizeiliger Elementsatz

1 67114U 25299N 26146.23305461 .00020333 00000-0 74578-3 0 9994
2 67114 43.0039 91.2234 0001621 269.6504 90.4162 15.27605812 24974
Epoch: 26. Mai 2026 • Age: 15 hours

Aktueller Status

Höhe 486.1 km
Geschwindigkeit 7.62 km/s
Subsatellitenpunkt -17.42°S, 93.6°E
Startdatum 15. Dez. 2025
Alter 0.4 years
Typ internet

Technische Details

Klassifizierung Payload
Masse 575.00 kg
Trockenmasse 530.00 kg
Gesamtmasse 575.00 kg
Länge 0.30 m
Durchmesser 4.10 m
Spannweite 29.00 m
Form Box + pan
Hersteller SPXS
Bus-Typ Starlink V2MO
Phasenstatus In Orbit
Besitzer/Staat SPXS/US

Most Searched